www.pogodaiklimat.ru

Погода и климат >> Архив погоды >> Пакистан >> Саргодха


ПОГОДА в Саргодхе

  • Прогноз погоды в Саргодхе
  • Монитор погоды в Саргодхе

АРХИВ ПОГОДЫ в Саргодхе

Время (UTC), дата Ветер
(напр.,м/с)
 
Видим.   Явления Облачность Т
(С)
Тd
(С)
f
(%)
Тe
(С)
Тes
(С)
Комфортность P
(гПа)
Po
(гПа)
Тmin
(С)
Tmax
(С)
R
(мм)
R24
(мм)
S
(см)
09 15.09 ЮЗ 2 4000 м мгла 4/4 1200 м
[Cu hum]
+37.0 +27.6 59 +56 +64 опасность
перегрева
1000.9 980.5
12 15.09 ЮЗ 1 4000 м мгла ясно +38.0 +27.9 57 +58 +60 опасность
перегрева
999.0 978.7 +38.5
18 15.09 штиль 0 4000 м мгла ясно +32.0 +25.8 70 +47 +47 опасность
перегрева
999.9 979.2
21 15.09 штиль 0 4000 м мгла ясно +30.5 +26.4 79 +47 +47 опасность
перегрева
1000.7 979.9
00 16.09 штиль 0 4000 м мгла ясно +29.5 +26.0 81 +44 +44 опасность
перегрева
999.7 978.8
06 16.09 СВ 1 4000 м мгла 3/0
[Ac trans]
+32.5 +24.0 61 +44 +59 опасность
перегрева
1001.3 980.6
09 16.09 В 1 4000 м мгла 1/0
[Ac trans]
+36.0 +27.9 63 +56 +70 опасность
перегрева
998.0 977.6
12 16.09 З 1 4000 м мгла 8/3 1200 м
[Sc Ac As]
+35.0 +26.8 63 +53 +53 опасность
перегрева
996.2 975.8 +36.5
15 16.09 штиль 0 4000 м мгла 5/1 1200 м
[Sc Ac As]
+30.0 +25.8 78 +45 +45 опасность
перегрева
997.0 976.2
21 16.09 В 1 4000 м мгла ясно +28.5 +25.7 85 +42 +42 опасность
перегрева
998.6 977.7
00 17.09 СВ 1 4000 м мгла ясно +27.0 +25.6 92 +40 +40 очень
душно
999.5 978.4
03 17.09 СВ 1 4000 м мгла ясно +28.5 +25.7 85 +42 +46 опасность
перегрева
1001.4 980.4 +26.8
06 17.09 штиль 0 10 км ясно +33.0 +26.1 67 +49 +69 опасность
перегрева
1001.9 981.2
09 17.09 В 1 10 км 6/3 1200 м
[Sc Ac trans]
+36.0 +26.4 58 +53 +60 опасность
перегрева
1000.2 979.7
12 17.09 В 1 10 км в посл. час гроза {дождь} 3/0
[Ac trans]
+29.5 +25.3 78 +43 +44 опасность
перегрева
999.1 978.2 +36.5 9
15 17.09 штиль 0 4000 м мгла ясно +27.5 +23.9 81 +38 +38 очень
душно
1000.2 979.2
18 17.09 штиль 0 4000 м мгла ясно +26.5 +22.9 81 +35 +35 очень
душно
1001.0 979.9
21 17.09 штиль 0 4000 м мгла ясно +25.0 +22.8 88 +33 +33 очень
душно
1002.0 980.8
06 18.09 штиль 0 4000 м мгла ясно +33.0 +26.8 70 +51 +70 опасность
перегрева
1005.3 984.5
09 18.09 В 2 4000 м мгла 3/3 1200 м
[Cu hum]
+35.0 +26.8 63 +53 +61 опасность
перегрева
1003.3 982.7
12 18.09 штиль 0 4000 м мгла ясно +35.0 +25.3 57 +49 +51 опасность
перегрева
1002.2 981.6 +36.5
15 18.09 штиль 0 4000 м ясно +32.5 +26.3 70 +49 +49 опасность
перегрева
1003.0 982.2
18 18.09 штиль 0 4000 м ясно +31.0 +27.4 81 +49 +49 опасность
перегрева
1003.6 982.7
21 18.09 штиль 0 4000 м ясно +29.0 +26.2 85 +44 +44 опасность
перегрева
1004.3 983.3
00 19.09 штиль 0 4000 м ясно +27.5 +25.4 88 +40 +40 очень
душно
1005.0 983.9
03 19.09 штиль 0 4000 м мгла ясно +29.0 +26.9 88 +45 +50 опасность
перегрева
1006.2 985.1 +26.5
06 19.09 В 3 4000 м мгла 4/4 1200 м
[Cu hum]
+31.0 +26.9 79 +48 +56 опасность
перегрева
1007.5 986.6
09 19.09 ЮВ 3 4000 м мгла 4/4 1200 м
[Cu hum]
+34.0 +26.5 65 +51 +57 опасность
перегрева
1005.9 985.2
12 19.09 СВ 3 4000 м мгла 4/0
[Ac trans]
+32.0 +26.5 73 +49 +50 опасность
перегрева
1004.8 984.0 +34.5
15 19.09 СВ 2 4000 м мгла 4/0
[Ac trans]
+29.0 +26.2 85 +44 +44 опасность
перегрева
1005.4 984.4
18 19.09 СВ 3 4000 м дым 5/0
[As op]
+28.0 +25.9 88 +42 +42 опасность
перегрева
1006.5 985.4
21 19.09 СВ 2 4000 м дым 9/3 1200 м
[Sc As op]
+27.0 +25.6 92 +40 +40 очень
душно
1006.4 985.2
00 20.09 СВ 1 4000 м гроза без осадков 10/5 900 м
[Cb cap As op]
+27.0 +25.6 92 +40 +40 очень
душно
1006.3 985.1
03 20.09 СВ 3 4000 м дым {гроза, морось} 10/4 1200 м
[Sc As op]
+26.0 +23.8 88 +36 +36 очень
душно
1008.0 986.7 +25.5 0.0
06 20.09 СВ 3 4000 м дым {морось} 10/3 1200 м
[Sc As trans]
+27.5 +24.7 85 +39 +42 очень
душно
1008.0 986.8
09 20.09 В 1 4000 м дым 9/3 1200 м
[Sc Ac As]
+31.0 +24.6 69 +44 +48 опасность
перегрева
1005.6 984.7
12 20.09 СВ 1 4000 м дым 1/0
[Ac trans]
+29.5 +24.5 75 +42 +43 опасность
перегрева
1004.4 983.4 +31.5
15 20.09 штиль 0 4000 м дым ясно +27.5 +24.7 85 +39 +39 очень
душно
1004.6 983.5
18 20.09 штиль 0 4000 м дым ясно +26.5 +23.6 84 +36 +36 очень
душно
1005.0 983.8
00 21.09 штиль 0 4000 м дым ясно +24.5 +23.0 91 +32 +32 очень
душно
1005.3 983.9
03 21.09 СВ 1 4000 м дым ясно +26.5 +23.6 84 +36 +40 очень
душно
1006.5 985.3 +24.3
06 21.09 штиль 0 4000 м дым ясно +31.5 +22.0 57 +40 +59 опасность
солнечного
удара
1006.5 985.6
09 21.09 штиль 0 4000 м дым ясно +34.0 +23.3 54 +45 +61 опасность
перегрева
1005.3 984.6
12 21.09 штиль 0 10 км ясно +33.5 +22.7 53 +43 +45 опасность
перегрева
1001.8 981.1 +35.0
18 21.09 штиль 0 4000 м ясно +29.0 +23.2 71 +39 +39 очень
душно
1004.4 983.4
21 21.09 штиль 0 4000 м ясно +27.0 +21.8 73 +35 +35 очень
душно
1005.3 984.1
00 22.09 штиль 0 4000 м ясно +26.0 +22.3 80 +34 +34 очень
душно
1005.8 984.5
03 22.09 штиль 0 4000 м дым ясно +28.0 +24.4 81 +39 +44 очень
душно
1006.7 985.6 +25.5
06 22.09 штиль 0 4000 м мгла ясно +33.0 +23.8 59 +45 +64 опасность
перегрева
1007.1 986.3

 

Местоположение метеостанции Саргодха (Пакистан): широта 32.05 долгота 72.67 высота над уровнем моря 187 м.

В архиве по умолчанию представлена погода в Саргодхе за последнюю неделю. Архивные данные за месяц целиком и за предыдущие месяцы, начиная с января 2011 года, Вы можете получить, выбрав интересующий диапазон дат из раскрывающегося списка и нажав кнопку "Ввод!".


*Определитесь, кто Вы:
робот инопланетянин человек

Внимание! Время в таблицах - всемирное. Для получения местного времени необходимо прибавить поправку, которая равна 5 ч.

Смотрите также архив погоды в соседних городах и на ближайших метеорологических станциях:

Погода в Джаухарабаде (Пакистан) (55 км)
Погода в Нур Пур Тал (Пакистан) (75 км)
Погода в Фейсалабаде (Пакистан) (80 км)
Погода в Хафизабаде (Пакистан) (92 км)
Погода в Джанге (Пакистан) (93 км)
Погода в Чаквале (Пакистан) (98 км)
Погода в Тоба Тек Сингх (Пакистан) (121 км)
Погода в Мианвали (Пакистан) (122 км)
Погода в Гуджранвале (Пакистан) (138 км)
Погода в Сиалкот аэропорту (Пакистан) (139 км)

Пояснения к столбцам:

Ветер - указаны скорость ветра в м/с - средняя за 10 мин, порывы в срок и между сроками (в фигурных скобках) и направление, откуда дует ветер: С - северный, СВ - северо-восточный, В - восточный, ЮВ - юго-восточный, Ю - южный, ЮЗ - юго-западный, З - западный, СЗ - северо-западный.
Видимость - горизонтальная дальность видимости в метрах или километрах. При видимости от 1 до 10 км при отсутствии осадков обычно наблюдается дымка, при ухудшении видимости до 1 км и менее - туман. В сухую погоду видимость может ухудшаться дымом, пылью или мглою.
Явления - указаны атмосферные явления, наблюдавшиеся в срок или в последний час перед сроком; фигурными скобками обозначены явления, наблюдавшиеся между сроками (за 1-3 часа до срока); квадратными скобками обозначены град или гололедные отложения с указанием их диаметра в мм.
Облачность - указаны через наклонную черту общая и нижняя облачность в баллах и высота нижней границы облаков в метрах; квадратными скобками обозначены формы облаков: Ci - перистые, Cs - перисто-слоистые, Cc - перисто-кучевые, Ac - высококучевые, As - высокослоистые, Sc - слоисто-кучевые, Ns - слоисто-дождевые, Cu - кучевые, Cb - кучево-дождевые. Подробнее классификацию облаков см. в Атласе облаков (PDF).
T - Температура воздуха - температура, измеренная на высоте 2 м над землей.
Td - Температура точки росы - температура, при понижении до которой содержащийся в воздухе водяной пар достигнет насыщения.
f - Относительная влажность воздуха - влажноcть воздуха, измеренная на высоте 2 м над землей.
Te - Эффективная температура - температура, которую ощущает одетый по сезону человек в тени. Характеристика душности погоды. При расчете учитывается влияние влажности воздуха и скорости ветра на теплоощущения человека.
Tes - Эффективная температура на солнце - температура, которую ощущает человек, с поправкой на солнечный нагрев. Характеристика знойности погоды. Зависит от высоты солнца над горизонтом, облачности и скорости ветра. Ночью, в пасмурную погоду, а также при ветре 12 м/с и более поправка равна нулю.
P - Атмосферное давление - приведенное к уровню моря атмосферное давление.
Po - Атмосферное давление - измеренное на уровне метеостанции атмосферное давление.
Tmin - Минимальная температура - минимум температуры воздуха на высоте 2 м над землей.
Tmax - Максимальная температура - максимум температуры воздуха на высоте 2 м над землей.
R - Количество осадков - Количество выпавших осадков за период времени, мм. При наведении курсора мыши на число - период времени, за который выпало указанное количество осадков.
R24 - Количество осадков - Количество выпавших осадков за 24 часа, мм.
S - Снежный покров - Высота снежного покрова, см. При наведении курсора мыши на число - состояние снежного покрова и степень покрытия местности в баллах.